Wind_Speed
28 28 27 26 26 26 24 22 20 18 17 15 15 14 14 14 13 13 12 12 12 12 11 11 11 10 10 9 8 8 8 9 10 10 10 10 10 10 11 12 12 13 14 15
28 28 28 28 27 26 25 23 21 19 17 17 16 15 15 14 14 13 13 13 13 12 12 11 11 11 10 10 9 10 10 10 10 10 10 11 11 12 12 13 13 14 15 15
28 28 29 30 28 27 26 24 21 19 18 18 17 17 16 15 15 15 14 13 13 12 12 11 11 11 11 11 11 11 11 11 11 11 11 12 12 12 13 14 14 15 15 16
29 29 29 28 28 27 26 24 23 22 20 19 18 18 17 17 16 16 15 15 14 13 12 13 13 13 13 12 12 12 13 13 13 13 13 13 13 14 15 15 16 17 17 17
32 30 29 31 29 27 26 25 24 23 22 21 19 19 19 18 17 18 18 17 16 15 15 15 14 13 13 13 14 14 14 14 14 15 15 15 16 16 16 17 18 18 18 18
35 32 30 31 30 27 26 27 26 25 23 22 21 20 20 20 20 20 19 19 18 17 17 16 16 15 14 14 15 15 16 16 16 16 16 17 17 18 18 19 19 19 19 20
37 35 33 34 31 29 28 28 27 26 24 23 23 22 22 21 21 21 21 20 20 19 19 19 18 17 17 17 17 17 18 18 18 18 18 18 19 19 20 20 20 21 21 22
39 37 36 36 33 32 31 29 29 28 26 26 25 24 23 23 22 22 22 22 22 22 21 21 20 20 19 19 19 19 19 20 20 20 20 21 21 22 22 22 22 23 23 24
42 41 40 38 36 34 33 31 30 29 28 27 26 26 25 24 25 24 23 23 24 24 24 24 23 22 22 22 22 22 21 21 21 22 22 23 23 24 24 24 25 25 25 25
43 43 42 40 38 37 35 33 31 30 29 28 28 27 27 27 27 27 26 26 26 26 26 26 26 25 25 24 24 24 23 23 23 24 24 25 25 25 25 25 25 26 26 26
43 43 42 42 41 39 37 36 34 32 31 31 30 29 29 29 29 29 28 28 28 28 28 28 28 28 28 28 27 26 26 25 25 25 26 26 26 26 26 26 26 26 26 26
43 43 43 42 41 40 39 38 36 35 34 32 31 31 30 30 30 29 30 30 30 30 30 30 30 30 29 30 30 29 28 28 27 27 27 28 28 28 28 28 27 27 27 27
42 41 41 41 41 40 40 39 37 36 35 34 33 32 32 31 30 30 31 31 30 31 31 31 31 31 30 31 31 30 29 29 29 29 30 30 30 29 29 29 29 29 29 29
40 39 39 39 39 39 39 38 38 37 36 35 35 34 32 32 32 31 32 31 31 31 31 32 33 32 32 32 32 31 30 30 30 31 31 31 30 30 30 30 30 30 30 31
37 38 38 37 38 38 38 37 37 36 36 35 35 35 34 34 33 33 32 33 33 33 33 33 34 33 33 33 33 32 31 31 32 32 32 32 32 32 32 31 31 31 31 31
35 35 36 36 37 37 37 37 36 36 35 35 35 34 34 34 33 32 33 34 34 33 33 34 34 33 32 32 33 32 32 32 32 32 32 32 32 33 32 32 31 31 30 30
32 33 34 35 35 36 36 36 36 35 35 35 35 35 35 34 32 31 32 34 34 35 35 34 34 33 33 33 33 32 32 32 32 32 32 32 32 31 32 32 31 31 31 31
30 31 32 33 34 34 35 35 35 34 34 34 34 33 33 33 32 32 33 34 34 34 34 35 34 33 33 33 33 32 31 31 31 31 31 30 31 31 31 31 31 31 31 30
29 29 30 31 32 33 33 33 34 33 33 33 33 33 34 33 33 33 33 33 33 34 33 33 32 32 32 32 31 30 30 30 30 29 30 30 30 30 31 31 31 31 30 30
28 28 28 29 30 30 30 31 30 31 32 32 33 33 33 33 33 33 33 32 32 32 31 31 31 31 31 30 29 29 29 29 29 29 29 29 30 30 30 29 29 29 29 28
25 26 26 27 28 29 29 29 29 29 30 30 31 31 31 32 32 32 32 31 30 30 30 30 30 29 29 28 28 28 29 29 29 29 29 29 28 28 28 27 28 28 27 27
22 23 24 25 26 26 27 28 28 29 29 29 29 29 29 29 29 29 29 29 28 28 28 28 28 27 27 27 27 27 28 27 27 27 26 26 26 26 26 26 27 27 26 26
20 21 21 21 22 24 24 25 26 25 26 26 26 26 26 26 26 25 25 26 26 27 27 26 25 25 25 24 25 25 25 25 25 24 24 24 24 24 25 25 25 25 25 25
17 18 19 20 20 20 21 22 23 23 23 23 23 24 24 24 24 24 24 24 24 24 23 22 22 23 23 23 23 23 23 23 23 23 24 24 23 23 24 24 24 24 24 25
15 16 16 16 17 17 18 19 19 19 20 20 21 21 21 22 22 22 21 21 20 20 19 20 20 21 21 21 22 22 22 22 23 23 23 23 23 23 24 24 25 25 25 25
12 13 13 13 14 14 14 15 15 16 16 16 17 17 17 17 17 17 17 16 16 17 18 18 19 19 20 20 20 20 21 21 22 22 22 23 23 24 24 25 25 25 25 25
11 11 11 12 12 12 12 12 12 13 14 14 14 14 14 14 14 14 14 14 15 15 16 17 17 18 18 19 19 20 20 21 21 22 23 23 24 24 24 25 25 25 25 26
Wind_Direction
232 237 241 241 242 242 243 244 247 252 254 257 260 262 263 262 261 264 269 275 284 293 297 295 295 295 293 293 296 300 302 301 299 295 289 280 276 277 280 282 283 283 286 285
233 235 238 239 240 241 242 243 246 248 252 252 255 260 262 259 258 261 267 272 279 286 291 292 291 290 289 288 292 296 300 303 301 297 291 285 280 280 281 282 283 285 287 288
233 234 236 237 238 240 243 244 245 247 249 252 254 258 261 258 257 259 264 268 274 280 284 286 288 284 284 285 289 293 297 300 301 296 294 290 288 286 285 285 286 287 288 288
231 234 235 237 238 239 242 244 245 247 250 251 253 254 257 257 257 259 262 264 271 277 279 277 280 282 282 285 286 289 292 293 294 294 292 291 290 289 287 287 287 288 289 288
232 235 237 239 237 237 241 244 246 248 248 249 252 255 255 255 255 258 260 263 267 271 272 276 279 282 282 283 284 285 289 291 292 291 292 291 291 290 289 289 289 290 290 290
232 233 236 242 237 236 239 242 243 246 248 248 250 252 254 254 255 257 258 259 262 267 269 272 275 279 281 283 286 286 287 290 292 292 291 292 292 291 290 289 289 289 289 290
234 236 237 239 237 236 239 242 243 245 246 245 246 248 251 253 256 256 255 255 256 261 267 268 271 275 279 284 286 286 287 288 288 290 291 291 291 291 290 288 288 289 289 288
235 236 238 240 238 239 241 243 245 246 247 246 245 246 250 252 254 255 255 254 256 259 263 266 269 273 276 280 284 284 285 286 286 288 289 290 290 290 290 288 288 288 288 287
235 236 239 241 241 242 244 245 245 246 247 247 246 246 248 250 252 252 252 254 257 260 262 265 268 270 274 277 282 283 283 285 286 286 288 289 289 289 289 288 288 288 287 288
237 238 239 242 243 244 244 245 245 246 247 247 246 246 249 250 250 250 251 253 257 260 263 265 267 269 273 277 279 280 281 282 283 285 286 288 289 290 289 289 289 288 287 286
237 238 239 241 242 243 244 245 245 246 247 248 248 247 247 248 249 249 251 253 257 260 262 263 267 270 273 276 278 277 279 280 281 283 285 287 288 289 289 289 290 288 287 286
236 237 238 240 241 243 244 246 247 247 248 249 249 249 249 250 249 250 251 254 257 260 263 266 268 271 273 275 276 277 277 278 279 281 284 286 287 288 289 290 289 288 286 286
236 237 238 238 240 242 243 245 246 246 247 247 248 248 249 249 250 250 251 253 257 260 263 267 269 270 272 275 276 278 278 277 277 279 282 284 285 286 287 288 288 287 286 285
236 235 236 237 238 240 241 243 244 245 246 247 247 249 250 250 251 251 252 253 255 259 263 266 267 268 270 273 276 277 277 277 278 279 282 283 284 284 285 286 285 285 285 285
235 235 235 235 236 237 239 241 243 244 245 247 248 249 250 251 252 252 251 253 255 259 264 267 267 268 270 273 275 277 277 278 279 280 281 282 282 283 284 284 284 284 284 284
234 234 233 233 234 235 236 239 241 242 243 244 245 247 249 251 251 252 252 254 257 261 265 267 268 269 271 274 276 276 277 278 279 280 280 281 282 283 282 282 282 283 283 283
232 232 231 232 232 233 234 237 238 240 241 243 244 246 249 251 252 253 253 254 258 261 264 266 268 269 271 274 275 276 277 277 278 279 280 281 282 282 282 281 281 282 282 283
230 230 229 229 230 231 233 234 236 238 240 242 243 245 246 249 251 252 255 257 258 260 263 265 268 269 270 272 273 274 275 278 279 279 279 281 281 281 281 281 281 282 282 282
227 227 227 229 230 230 232 232 234 235 237 239 241 243 245 248 249 251 253 254 257 260 263 265 267 269 270 272 273 273 274 276 277 278 279 279 280 279 279 279 279 279 280 281
225 224 224 226 227 229 229 229 231 233 235 237 240 242 245 247 249 250 252 255 258 261 263 265 268 270 272 273 273 273 274 276 277 277 278 279 279 279 279 279 279 280 281 281
223 224 224 225 226 227 227 228 230 231 233 236 239 242 245 247 249 250 252 255 258 261 263 265 267 269 269 270 271 273 275 277 277 277 279 280 280 279 278 279 280 281 282 282
220 220 221 221 223 225 227 229 231 232 235 238 241 242 245 247 249 250 252 255 258 260 262 264 266 267 268 271 273 275 276 276 278 278 279 280 279 279 279 281 282 283 283 284
216 217 219 220 221 224 226 229 231 234 237 238 238 241 244 246 248 250 253 255 258 261 263 264 266 267 269 271 272 274 276 277 278 279 279 280 280 281 282 283 284 283 284 285
211 214 217 219 221 223 224 226 230 233 235 238 241 243 244 246 250 252 254 256 259 261 262 263 264 266 268 270 272 273 275 276 277 278 280 281 282 283 284 285 286 286 285 285
201 204 207 208 212 216 221 224 227 230 234 238 241 243 245 248 250 251 252 255 257 257 258 260 263 266 268 270 272 274 276 278 279 281 282 283 283 284 285 286 286 286 287 287
192 195 200 205 212 216 221 223 226 229 233 236 238 240 241 243 245 247 249 252 255 257 259 262 264 266 268 270 273 276 277 280 281 282 284 285 285 286 287 287 286 286 286 286
184 189 195 200 203 207 214 220 224 227 228 228 230 233 235 239 244 247 250 253 257 259 262 264 265 267 270 272 275 277 280 282 284 286 287 287 287 288 288 288 287 287 287 287
Height
5856 5859 5862 5865 5868 5870 5873 5877 5880 5882 5882 5883 5883 5883 5883 5883 5883 5883 5883 5883 5882 5881 5880 5879 5878 5877 5876 5875 5874 5873 5872 5871 5869 5868 5867 5867 5867 5866 5865 5865 5864 5864 5863 5862
5850 5853 5856 5859 5862 5864 5868 5871 5874 5876 5878 5878 5878 5879 5879 5880 5880 5880 5880 5880 5879 5878 5877 5876 5875 5874 5874 5873 5872 5871 5870 5869 5867 5866 5865 5864 5864 5863 5863 5862 5861 5860 5859 5858
5844 5847 5849 5853 5856 5859 5862 5865 5868 5871 5873 5873 5874 5875 5875 5876 5876 5876 5876 5876 5876 5875 5874 5873 5873 5872 5871 5870 5869 5869 5868 5866 5865 5864 5863 5862 5861 5860 5859 5858 5857 5856 5855 5854
5838 5841 5844 5849 5850 5854 5857 5859 5862 5864 5866 5868 5869 5870 5871 5871 5872 5872 5872 5873 5872 5872 5871 5870 5870 5869 5869 5868 5867 5866 5865 5864 5863 5861 5860 5859 5858 5857 5856 5855 5854 5852 5851 5850
5831 5834 5838 5841 5844 5848 5851 5854 5856 5858 5860 5862 5863 5865 5866 5867 5867 5868 5868 5868 5868 5868 5868 5867 5867 5866 5865 5865 5864 5863 5862 5861 5860 5858 5857 5856 5854 5853 5852 5851 5849 5848 5846 5845
5823 5827 5832 5835 5837 5841 5846 5847 5849 5851 5854 5855 5857 5860 5861 5861 5862 5862 5863 5863 5864 5864 5864 5864 5863 5863 5862 5861 5860 5859 5858 5857 5856 5855 5853 5851 5850 5849 5847 5846 5844 5843 5842 5840
5814 5819 5824 5825 5830 5835 5839 5841 5842 5845 5847 5849 5851 5853 5854 5855 5856 5856 5857 5858 5859 5859 5859 5859 5859 5859 5858 5857 5856 5855 5854 5853 5852 5850 5848 5847 5845 5844 5842 5841 5839 5838 5836 5834
5805 5811 5817 5817 5822 5827 5830 5833 5835 5838 5840 5842 5844 5846 5847 5849 5850 5850 5851 5852 5853 5854 5854 5854 5854 5853 5853 5852 5851 5850 5849 5847 5846 5845 5843 5842 5840 5838 5837 5835 5834 5832 5830 5828
5796 5802 5805 5809 5813 5817 5821 5824 5827 5830 5832 5835 5837 5839 5840 5842 5843 5844 5845 5846 5847 5847 5848 5848 5848 5848 5847 5846 5845 5844 5843 5841 5840 5839 5837 5836 5834 5833 5831 5829 5827 5825 5824 5822
5786 5790 5795 5799 5803 5808 5811 5815 5818 5821 5824 5826 5829 5831 5833 5834 5836 5837 5838 5839 5840 5840 5841 5841 5841 5841 5841 5840 5839 5837 5836 5835 5834 5833 5831 5830 5828 5826 5824 5822 5820 5818 5817 5815
5775 5780 5785 5789 5793 5798 5802 5806 5809 5812 5815 5818 5820 5822 5824 5826 5828 5829 5831 5832 5832 5833 5833 5833 5833 5833 5833 5832 5831 5830 5829 5828 5827 5826 5824 5823 5821 5819 5817 5815 5813 5811 5809 5808
5765 5769 5774 5779 5783 5788 5792 5796 5799 5803 5806 5809 5811 5814 5816 5818 5819 5821 5823 5824 5824 5825 5825 5825 5825 5825 5825 5824 5824 5822 5822 5820 5819 5818 5816 5815 5813 5811 5809 5808 5806 5804 5802 5800
5754 5759 5764 5769 5773 5777 5781 5785 5789 5793 5796 5799 5802 5804 5807 5809 5811 5812 5814 5815 5816 5817 5817 5817 5817 5817 5817 5816 5815 5814 5813 5812 5811 5810 5808 5807 5805 5803 5802 5800 5798 5796 5794 5792
5744 5749 5754 5759 5763 5767 5771 5775 5779 5782 5786 5789 5792 5795 5797 5800 5802 5803 5805 5806 5807 5808 5808 5808 5808 5808 5808 5807 5807 5806 5805 5804 5803 5801 5800 5798 5797 5795 5793 5792 5790 5788 5786 5784
5734 5739 5744 5749 5753 5757 5761 5765 5769 5773 5776 5780 5783 5785 5788 5790 5792 5794 5796 5797 5798 5799 5799 5799 5799 5799 5799 5798 5798 5797 5796 5795 5794 5792 5791 5790 5788 5786 5785 5783 5781 5779 5777 5775
5725 5729 5734 5739 5743 5747 5751 5755 5759 5763 5767 5770 5773 5776 5778 5780 5782 5784 5786 5788 5789 5790 5790 5791 5790 5790 5789 5789 5789 5788 5787 5786 5784 5783 5782 5780 5779 5777 5776 5774 5772 5770 5768 5766
5716 5720 5725 5729 5733 5738 5742 5746 5750 5753 5757 5760 5764 5766 5769 5771 5773 5775 5777 5778 5780 5780 5781 5781 5781 5781 5780 5780 5779 5779 5778 5777 5775 5774 5773 5771 5770 5768 5766 5765 5763 5761 5760 5758
5708 5712 5716 5720 5724 5728 5733 5737 5741 5744 5748 5751 5754 5757 5760 5762 5764 5766 5768 5769 5770 5770 5771 5772 5772 5771 5771 5771 5770 5770 5769 5767 5766 5765 5763 5762 5760 5759 5757 5755 5754 5752 5750 5749
5700 5704 5708 5712 5716 5720 5724 5728 5732 5736 5739 5742 5746 5748 5751 5753 5755 5757 5758 5759 5760 5761 5762 5762 5762 5762 5762 5762 5761 5761 5760 5758 5757 5756 5754 5753 5751 5750 5748 5746 5745 5743 5741 5740
5693 5697 5701 5704 5708 5712 5716 5720 5724 5727 5731 5734 5737 5740 5742 5744 5746 5748 5749 5750 5751 5752 5753 5753 5753 5753 5753 5753 5752 5752 5751 5749 5748 5747 5745 5744 5742 5741 5739 5737 5736 5734 5733 5731
5687 5691 5694 5698 5701 5705 5709 5713 5716 5720 5723 5726 5729 5731 5734 5736 5738 5739 5740 5742 5743 5743 5744 5744 5745 5745 5744 5744 5743 5743 5742 5740 5739 5738 5736 5735 5733 5732 5730 5729 5727 5726 5724 5723
5682 5685 5689 5692 5696 5699 5703 5706 5709 5713 5716 5719 5721 5723 5726 5728 5729 5731 5732 5734 5735 5735 5736 5736 5736 5736 5736 5735 5735 5734 5733 5732 5730 5729 5728 5726 5725 5724 5722 5721 5719 5718 5716 5715
5678 5681 5685 5688 5691 5694 5697 5700 5704 5707 5710 5712 5714 5716 5718 5720 5722 5723 5725 5726 5726 5727 5728 5728 5728 5728 5728 5727 5727 5726 5725 5724 5723 5721 5720 5718 5717 5716 5714 5713 5712 5710 5708 5707
5675 5678 5681 5684 5687 5690 5693 5696 5699 5701 5704 5706 5708 5710 5712 5713 5715 5716 5718 5718 5719 5719 5720 5720 5720 5720 5720 5720 5719 5718 5717 5716 5715 5714 5713 5711 5710 5708 5707 5706 5704 5702 5701 5699
5673 5676 5678 5681 5684 5687 5689 5692 5694 5697 5699 5701 5703 5704 5706 5707 5709 5710 5710 5711 5712 5712 5713 5713 5713 5713 5713 5712 5712 5711 5710 5709 5708 5707 5706 5704 5703 5701 5700 5698 5697 5695 5693 5691
5672 5674 5677 5679 5682 5684 5686 5689 5691 5693 5695 5696 5698 5699 5701 5702 5703 5704 5705 5706 5706 5707 5707 5707 5707 5706 5706 5706 5705 5704 5703 5703 5701 5700 5699 5697 5696 5694 5692 5690 5689 5687 5685 5683
5671 5673 5676 5678 5680 5682 5684 5686 5688 5690 5691 5692 5694 5695 5696 5698 5699 5700 5700 5701 5701 5701 5701 5701 5701 5700 5700 5700 5699 5698 5697 5696 5695 5693 5692 5690 5688 5687 5685 5683 5681 5679 5677 5675